This is the latest recevied weather packets stored in our database for station/object PA3FNT-13. If no packets are shown the sender has not sent any weather packets the latest 1 day(s).
| Time | Temp. | Humidity | Pressure | Rain* | Wind** | Luminosity | Snow |
|---|---|---|---|---|---|---|---|
| 1777741695 | 30° C | 27% | 1015.7 hPa | - | - | - | - |
| 1777740795 | 30° C | 28% | 1015.9 hPa | - | - | - | - |
| 1777739895 | 30° C | 29% | 1016 hPa | - | - | - | - |
| 1777738994 | 30° C | 29% | 1016.2 hPa | - | - | - | - |
| 1777738094 | 30° C | 29% | 1016.2 hPa | - | - | - | - |
| 1777737194 | 30° C | 29% | 1016.3 hPa | - | - | - | - |
| 1777736294 | 30° C | 30% | 1016.3 hPa | - | - | - | - |
| 1777735429 | 30° C | 29% | 1016.4 hPa | - | - | - | - |
| 1777735394 | 30° C | 29% | 1016.4 hPa | - | - | - | - |
| 1777734494 | 30° C | 30% | 1016.6 hPa | - | - | - | - |
| 1777733593 | 30.56° C | 28% | 1016.7 hPa | - | - | - | - |
| 1777732693 | 30.56° C | 29% | 1016.9 hPa | - | - | - | - |
| 1777731793 | 30° C | 30% | 1016.9 hPa | - | - | - | - |
| 1777730893 | 30° C | 30% | 1017.1 hPa | - | - | - | - |
| 1777729993 | 30° C | 30% | 1017.2 hPa | - | - | - | - |
| 1777729093 | 30° C | 30% | 1017.2 hPa | - | - | - | - |
| 1777728192 | 29.44° C | 30% | 1017.4 hPa | - | - | - | - |
| 1777727292 | 29.44° C | 30% | 1017.5 hPa | - | - | - | - |
| 1777726392 | 29.44° C | 29% | 1017.6 hPa | - | - | - | - |
| 1777725492 | 29.44° C | 29% | 1017.7 hPa | - | - | - | - |
| 1777724592 | 29.44° C | 29% | 1017.7 hPa | - | - | - | - |
| 1777723692 | 28.89° C | 30% | 1018 hPa | - | - | - | - |
| 1777722791 | 28.89° C | 28% | 1017.9 hPa | - | - | - | - |
| 1777721891 | 30° C | 27% | 1018.1 hPa | - | - | - | - |
| 1777720991 | 28.33° C | 28% | 1018.3 hPa | - | - | - | - |
* Rain since midnight (hover to see other rain measurements)
** Current wind speed in m/s (hover to see current wind gust speed)